Regional Weather Roundup
Issued by NWS

Home | Current Version | Previous Version | Graphics & Text | Print | Product List | Glossary Off
Versions: 1 2 3 4 5 6 7 8 9 10 11 12 13 14 15 16 17 18 19 20 21 22 23 24 25 26 27 28 29 30 31 32 33 34 35 36 37 38 39 40 41 42 43 44 45 46 47 48 49 50

000
ASUS43 KMPX 040701
RWRMN
WEATHER ROUNDUP FOR MINNESOTA
NATIONAL WEATHER SERVICE TWIN CITIES/CHANHASSEN MN
100 AM CST SUN DEC 04 2016


NOTE: "FAIR" INDICATES FEW OR NO CLOUDS BELOW 12,000 FEET WITH NO
SIGNIFICANT WEATHER AND/OR OBSTRUCTIONS TO VISIBILITY. N/A MEANS
CURRENT SKY AND/OR WEATHER CONDITIONS ARE NOT AVAILABLE.

MNZ060>063-068>070-040800-
   Twin Cities Metro

CITY           SKY/WX    TMP DP  RH WIND       PRES   REMARKS
TWIN CITIES    LGT SNOW  31  28  89 SE10      30.09F FOG     WCI  22
ST PAUL        LGT SNOW  30  29  96 SE13      30.12F FOG     WCI  20
CRYSTAL        LGT SNOW  31  27  85 SE9       30.08F FOG     WCI  23
BLAINE         LGT SNOW  32  30  93 SE7       30.08F WCI  26
LAKEVILLE      LGT SNOW  28  28 100 SE7       30.08F WCI  21
EDEN PRAIRIE   LGT SNOW  32  29  88 SE10      30.07F FOG     WCI  24
SOUTH ST PAUL  LGT SNOW  31  29  94 SE5       30.10F WCI  26
LAKE ELMO      LGT SNOW  32  30  93 SE6       30.11F WCI  26
$$
MNZ001>005-007-008-013>017-022>024-027-028-040800-
   Northwest Minnesota

CITY           SKY/WX    TMP DP  RH WIND       PRES   REMARKS
BEMIDJI        CLOUDY    28  26  93 SE9       29.96F WCI  19
HALLOCK        CLOUDY    30  28  93 SE14      29.86F WCI  20
ROSEAU         CLOUDY    28  25  86 SE7       29.92F WCI  21
WARROAD        CLOUDY    27  23  86 SE10      29.94F WCI  17
THIEF RVR FALL CLOUDY    31  28  89 S15       29.90F WCI  20
CROOKSTON      CLOUDY    34  30  86 S17       29.88F WCI  23
FOSSTON        CLOUDY    28  27  93 SE12      29.91F WCI  18
DETROIT LAKES  CLOUDY    32  32 100 S14       29.92F FOG     WCI  22
MOORHEAD       CLOUDY    34  32  93 S21G28    29.90F FOG     WCI  22
PARK RAPIDS    LGT SNOW  29  25  85 SE12      29.96F FOG     WCI  19
$$
MNZ006-009>011-018-025>026-040800-
   North Central Minnesota

CITY           SKY/WX    TMP DP  RH WIND       PRES   REMARKS
BAUDETTE       LGT SNOW  25  21  85 SE12      29.96F FOG     WCI  14
FLAG ISLAND    LGT SNOW  27  25  93 SE15      29.95F WCI  15
INTL FALLS     CLOUDY    24  20  84 SE8       30.02F WCI  15
WASKISH        FLURRIES  28  27  93 SE7       29.96F WCI  21
BIG FORK       FLURRIES  28  23  80 SE5       30.01F WCI  23
LONGVILLE      LGT SNOW  28  27  93 SE7       29.99F WCI  21
GRAND RAPIDS   LGT SNOW  26  24  92 SE9       30.04F FOG     WCI  17
CRANE LAKE     MOCLDY    25  21  86 CALM      30.08F
ORR            CLOUDY    25  18  74 CALM      30.02F
COOK           CLOUDY    27  21  80 SE3       30.05F
$$
MNZ012-019>021-037-040800-
   Northeast Minnesota

CITY           SKY/WX    TMP DP  RH WIND       PRES   REMARKS
DULUTH         CLOUDY    28  21  75 SE9       30.08F WCI  19
ELY            MOCLDY    25  21  86 SE3       30.08S
HIBBING        LGT SNOW  25  21  85 SE8       30.05F FOG     WCI  16
EVELETH        MIX PCPN  28  22  78 SE7       30.07F WCI  20
DULUTH HARBOR  CLOUDY    30  23  74 S6        30.13F WCI  24
TWO HARBORS    MOCLDY    32  25  74 S3        30.09F
SILVER BAY     CLOUDY    30  21  69 CALM      30.10F
GRAND MARAIS     N/A     35  26  69 S13       30.15S WCI  26
G MARAIS ARPRT CLOUDY    27  19  74 SE10      30.09F WCI  17
$$
MNZ029>031-032-039>041-046>048-054>057-064-040800-
   West Central Minnesota

CITY           SKY/WX    TMP DP  RH WIND       PRES   REMARKS
FERGUS FALLS   CLOUDY    34  34 100 S16       29.97F FOG     WCI  23
WHEATON        CLOUDY   N/A N/A N/A SE15      29.94F HAZE
MORRIS         MOCLDY    34  32  93 S13       29.94F FOG     WCI  25
ALEXANDRIA     CLOUDY    33  32  96 S15       29.97F WCI  23
ELBOW LAKE     CLOUDY    32  32 100 S18       29.95F FOG     WCI  20
WADENA         LGT SNOW  28  28 100 S8        29.96F WCI  20
GLENWOOD       LGT SNOW  32  32 100 S15G22    29.98F WCI  22
APPLETON       CLOUDY    36  32  87 S10G16    29.96F
BENSON         CLOUDY    34  32  93 S10       29.98F FOG     WCI  26
ORTONVILLE     CLOUDY    34  30  86 CALM      29.94F FOG
MADISON        CLOUDY    37  36  93 S15G21    29.96F
WILLMAR        LGT SNOW  34  34 100 S12       30.01F WCI  25
$$
MNZ033>034-036-042>043-049>051-058-059-040800-
   Central Minnesota

CITY           SKY/WX    TMP DP  RH WIND       PRES   REMARKS
ST CLOUD       LGT SNOW  30  29  96 SE12      30.04F FOG     WCI  20
PAYNESVILLE    LGT SNOW  33  33 100 SE8       30.01F WCI  25
AITKIN         LGT SNOW  30  25  80 SE8       30.02F WCI  23
PINE RIVER     LGT SNOW  28  27  93 SE10      30.03F WCI  19
BRAINERD       LGT SNOW  28  25  88 SE7       30.02F FOG     WCI  21
STAPLES        FLURRIES  28  27  93 SE8       29.98F WCI  20
LONG PRAIRIE   LGT SNOW  30  30 100 E12       29.99F WCI  21
LITTLE FALLS   LGT SNOW  30  27  86 SE10G16   30.02F WCI  21
LITCHFIELD     LGT SNOW  34  34 100 SE6       30.03F WCI  29
BUFFALO        LGT SNOW  32  30  92 SE8       30.06F WCI  24
MAPLE LAKE     LGT SNOW  33  32  98 SE8       30.05F WCI  25
$$
MNZ037-044-045-052-053-040800-
   East Central Minnesota

CITY           SKY/WX    TMP DP  RH WIND       PRES   REMARKS
PRINCETON      LGT SNOW  30  28  93 SE8       30.06F WCI  23
MORA           LGT SNOW  28  27  93 SE6       30.09F WCI  22
CAMBRIDGE      LGT SNOW  30  25  80 SE5       30.07F WCI  25
RUSH CITY      CLOUDY    28  27  93 SE8       30.09F WCI  20
MOOSE LAKE     LGT SNOW  28  23  80 CALM      30.06F
HINCKLEY       LGT SNOW  30  27  86 SE3       30.09F
CLOQUET        LGT SNOW  28  21  74 SE7       30.08F WCI  21
MCGREGOR       CLOUDY    28  27  93 SE9       30.05F WCI  20
$$
MNZ071>073-080-081-089-090-097-098-040800-
   Southwest Minnesota

CITY           SKY/WX    TMP DP  RH WIND       PRES   REMARKS
MONTEVIDEO     CLOUDY    34  34 100 SW8       30.00F WCI  27
GRANITE FALLS  CLOUDY    36  34  93 SE14      30.01S
CANBY          CLOUDY    36  33  90 S10G21    29.97F
MARSHALL       CLOUDY    35  32  88 S17       29.97F WCI  25
REDWOOD FALLS  CLOUDY    34  31  88 SE10      30.01F WCI  26
OLIVIA         LGT SNOW  34  32  93 S12       30.00F WCI  25
PIPESTONE      CLOUDY    34  34 100 SW15G21   29.96S FOG     WCI  24
WINDOM         CLOUDY    34  34 100 S10       30.00F WCI  26
WORTHINGTON    CLOUDY    33  32  96 S13       29.99F WCI  24
JACKSON        CLOUDY    32  32 100 S13       30.02F FOG     WCI  22
TRACY          CLOUDY    35  33  92 S13G20    29.98F WCI  26
SLAYTON        CLOUDY    32  32  99 S14       29.99F WCI  22
$$
MNZ065>067-074>077-082>085-091>093-040800-
   South Central Minnesota

CITY           SKY/WX    TMP DP  RH WIND       PRES   REMARKS
MANKATO        LGT SNOW  33  32  96 S12       30.06F FOG     WCI  24
NEW ULM        FLURRIES  34  34 100 S9        30.03F WCI  26
ST JAMES       FLURRIES  34  34 100 SE9       30.05F WCI  26
FAIRMONT       LGT RAIN  33  32  96 S15       30.04F WCI  23
GLENCOE        LGT SNOW  33  34 100 SE7       30.05F WCI  27
FARIBAULT      MIX PCPN  34  32  93 SE8       30.08F WCI  27
OWATONNA       FLURRIES  34  30  86 SE10      30.08F WCI  26
WASECA         LGT SNOW  32  32 100 SE8       30.08F WCI  25
ALBERT LEA     LGT SNOW  36  36 100 S10       30.08F
$$
MNZ078>079-086>088-094>096-040800-
   Southeast Minnesota

CITY           SKY/WX    TMP DP  RH WIND       PRES   REMARKS
ROCHESTER      LGT SNOW  31  30  96 SE10      30.11F FOG     WCI  22
STANTON        LGT SNOW  33  29  88 SE8       30.08F WCI  25
DODGE CENTER   LGT SNOW  30  30 100 SE9       30.09F WCI  22
WINONA         FLURRIES  32  30  93 SE6       30.17F WCI  26
AUSTIN         LGT SNOW  32  30  93 S7        30.09F WCI  26
PRESTON        LGT SNOW  31  29  95 SE7       30.13F WCI  24
$$
ABBREVIATIONS USED IN REMARKS
   TC - TEMPERATURES IN CELSIUS
  WCI - WIND CHILL INDEX
   HX - HEAT INDEX
  VSB - VISIBILITY
$$



USA.gov is the U.S. government's official web portal to all federal, state and local government web resources and services.